CAPE
0 0 0 0 0 0 0 0 0 0 0 0 9 4 0 0 0 0 382 361 427 247 174 231 712 932 1127 1065 1140 1332 1610 1694 1858 1808 1622 1465 1370 1450 1543 1369 1177 1018 850 844 1040 1311 1414 1434 1387 1363 1407 1478 1556 1685 1654 1774 1881 1890 1722 1932 1846 2036 2391
0 0 0 0 0 0 0 0 0 0 0 0 3 7 17 24 1 14 62 105 230 134 0 420 798 887 986 1170 1060 1185 1491 1432 1599 1677 1962 2018 1767 1614 1662 1558 1328 1159 943 832 982 1422 1590 1282 1139 1150 1366 1443 1620 1709 1619 1594 1742 1797 1516 1578 1522 1749 2090
0 0 0 0 0 0 0 0 0 1 11 8 13 48 3 0 0 0 4 0 18 205 96 426 906 873 838 1096 1175 1171 1091 1336 1390 1462 1625 1831 1801 1708 1635 1470 1330 1210 932 986 1812 1348 1114 1051 1083 990 1102 1259 1267 1351 1384 1408 1517 1445 1389 1281 1322 1495 1721
0 0 0 0 0 0 0 0 0 0 13 97 50 0 7 1 21 20 1 0 0 311 151 241 724 984 1083 1071 1251 1190 1170 1121 1308 1400 1478 1682 1753 1848 1786 1564 1404 1284 1166 1424 1358 1302 1077 1082 956 933 1060 1011 1006 1053 1138 1229 1295 1387 1329 1193 1284 1447 1462
0 0 0 0 0 0 0 0 0 0 19 0 5 1 11 10 46 16 0 0 12 66 185 605 820 1161 1231 1328 1284 1421 1366 1286 1235 1418 1482 1788 1812 1564 1764 1791 1517 1313 1322 1154 1144 1180 1020 860 842 981 1091 1022 1002 963 1031 1194 1156 1153 1199 1116 1179 1394 1296
0 0 0 0 0 1 0 0 0 10 0 2 6 121 0 16 5 13 9 0 4 25 34 810 997 1087 1260 1512 1430 1403 1362 1355 1569 1732 1860 1750 1887 1828 1370 1192 1231 1552 1526 1053 1116 1022 774 700 893 1026 994 1025 1040 1045 1030 888 881 1047 996 1114 1285 1432 1407
0 0 0 0 0 0 0 0 0 3 107 41 0 0 233 28 4 0 19 3 0 133 116 704 1231 1384 1385 1537 1486 1304 1344 1428 1535 1699 1603 1575 1534 1513 1467 1568 1356 1180 1182 1199 1142 1053 917 811 938 943 955 971 1109 1245 1222 1005 1077 1210 1096 1156 1405 1778 1744
0 0 0 0 0 0 0 0 0 0 0 0 0 0 131 103 69 44 37 1 0 36 564 1075 1206 1419 1296 1366 1260 1486 1368 1411 1537 1728 1464 1406 1500 1437 1238 1351 1430 1522 1114 1095 1105 1037 1165 1406 1406 1225 1093 1076 1159 1381 1590 1536 1444 1504 1440 1481 1690 1845 1673
11 0 5 0 0 0 21 15 4 2 0 0 0 29 11 30 162 38 1 0 0 72 312 805 1092 988 991 1184 1154 1304 1645 1452 1370 1344 1263 1246 1206 1315 1328 1250 1333 1190 1397 1326 1264 1312 1371 1287 1443 1378 1068 1110 1218 1328 1604 1447 1518 1641 1565 1596 1595 1717 1674
0 7 4 0 0 6 0 10 0 18 30 27 137 12 76 1 270 2 6 0 4 27 1 409 783 812 824 946 921 848 1329 1500 1386 1032 989 1124 1007 1058 1238 1491 1424 1172 1172 1250 1428 1297 1223 1184 1177 1239 1293 1056 1004 1292 1422 1505 1721 1943 1862 1738 1665 1784 1668
0 115 822 18 5 0 0 0 10 0 0 16 148 273 77 0 41 9 90 190 87 36 59 317 598 684 774 785 753 805 1347 1166 903 876 852 918 748 882 910 1020 1013 1098 1181 1117 1273 1413 1314 1268 1262 1144 1034 1042 1046 1114 1172 1282 1410 1666 1974 1828 1779 1975 1919
176 136 37 0 56 0 0 0 1 13 9 1 27 0 91 609 16 2 158 596 13 0 67 188 364 465 665 736 772 623 1107 1244 1000 660 648 885 920 933 959 1056 1089 1164 1163 1122 1172 1255 1335 1489 1475 1367 1190 952 949 1025 962 1015 1332 1518 1518 1623 1665 1833 1827
0 0 0 0 0 0 0 0 0 8 74 13 53 49 56 64 0 0 226 512 83 118 78 78 103 288 398 468 777 669 1126 669 485 580 865 930 773 886 974 989 980 1006 1136 1181 1105 1151 1191 1173 1412 1637 1706 1478 1153 994 975 930 938 1320 1651 1839 1929 1541 1829
0 0 0 0 0 0 0 0 0 0 0 28 1 96 39 7 187 402 154 530 187 88 45 13 833 316 659 888 682 655 864 870 624 540 753 900 801 829 910 871 768 738 794 878 867 876 997 984 1091 1096 1144 1232 1360 1200 1069 1062 1030 1181 1528 1836 2012 1811 1847
0 0 0 0 0 0 0 0 0 0 0 0 0 1 1 8 6 6 8 257 424 294 83 1086 753 688 835 942 1070 1142 876 640 672 648 670 922 1029 1072 704 758 594 580 579 545 540 529 541 624 686 879 976 1031 993 1035 1188 1314 1327 1330 1368 1576 1905 2001 2120
0 0 0 0 0 0 0 0 0 0 0 0 0 0 38 6 54 416 139 72 116 267 328 1122 965 957 1272 1317 1088 950 925 628 619 658 738 815 877 914 894 821 690 598 539 469 353 349 337 412 471 601 715 723 761 867 939 1010 1205 1346 1424 1574 1759 1979 2081
0 0 0 0 0 0 0 0 0 0 0 34 0 1 48 34 275 161 64 70 526 435 1226 1388 1329 1278 1057 968 1198 1103 797 646 576 540 567 717 875 908 801 705 672 560 436 343 334 349 308 311 418 439 511 662 783 826 861 944 994 1104 1264 1385 1548 1836 2112
0 0 0 0 0 0 0 12 0 0 0 2 1 17 39 125 73 108 408 268 206 683 1120 1470 1523 1346 1399 1471 1219 813 1031 1011 778 766 877 835 918 850 818 695 543 470 381 372 355 365 306 346 377 374 458 470 592 717 823 945 908 952 966 1116 1360 1540 1871
0 0 0 0 0 2 65 0 195 130 0 0 0 204 535 241 320 459 525 808 1021 1457 1454 1543 1470 1306 1015 738 1047 753 620 698 845 848 782 764 696 784 736 636 502 436 432 413 393 354 321 322 284 257 212 161 146 196 390 558 878 900 1006 932 1030 1372 1585
0 0 0 0 0 28 0 47 396 206 3 11 150 307 741 893 372 745 806 1426 1250 814 859 796 790 840 795 664 661 753 815 713 815 718 736 780 761 710 620 416 521 491 420 412 358 271 265 155 191 211 207 17 7 11 21 323 489 558 888 914 926 1009 1292
5 14 0 5 77 0 94 108 306 109 724 305 242 0 244 721 1049 970 1145 1467 1078 831 853 889 760 726 568 830 950 580 700 733 731 709 788 658 733 711 660 637 564 417 431 379 268 260 206 189 174 168 189 198 156 3 3 4 45 400 562 823 891 896 1009
1 4 0 0 0 0 74 632 281 371 71 352 120 41 23 486 862 1327 1614 1821 1096 1011 961 974 866 636 920 210 487 1226 821 693 688 629 738 937 845 760 678 603 473 405 332 251 264 301 342 321 300 274 250 233 230 205 2 2 3 22 125 462 802 898 917
0 0 0 0 0 29 343 195 151 107 18 47 120 0 12 513 972 1185 1544 1892 1487 1328 1124 1089 753 545 66 52 79 835 1003 942 915 926 876 781 648 651 610 505 401 306 193 252 324 334 371 378 333 315 292 281 259 227 2 2 2 2 12 103 346 617 833
4 11 0 1 19 1 46 120 79 24 46 7 25 9 11 296 796 1236 1551 2033 1867 1532 1476 1233 1084 238 127 48 295 714 1159 1093 1132 925 766 754 697 585 438 400 315 198 93 202 258 310 323 316 298 286 268 233 128 0 6 24 29 20 17 31 154 406 698
53 2 8 0 0 12 10 16 100 42 2 32 28 10 1 420 855 1506 1506 2062 2197 1602 1244 1291 796 857 673 877 1236 1241 1242 921 924 833 770 664 516 457 311 180 144 57 141 218 202 202 202 218 223 232 222 190 53 1 18 62 115 130 152 124 60 162 498
32 3 6 18 105 89 9 44 88 147 16 48 72 329 328 945 1266 1716 1738 2007 1870 1674 1870 1603 1120 1193 438 954 1191 1139 895 809 742 693 663 620 451 374 258 96 16 15 223 256 268 259 239 220 214 213 199 174 0 0 6 45 140 206 295 331 270 62 102
8 2 1 4 0 6 66 184 141 38 225 162 832 308 56 909 1567 1728 1910 1794 1438 1652 1579 1573 1043 764 957 1003 1102 1034 842 727 750 796 723 638 443 273 152 56 2 1 3 243 234 211 213 219 198 197 174 161 95 172 138 160 205 309 387 353 327 213 85
8 2 5 0 140 421 300 285 318 105 240 562 454 705 484 818 1608 2024 1979 1776 1546 1361 1458 1182 929 992 975 839 907 818 796 733 760 624 607 487 318 195 38 1 0 0 0 0 1 17 102 222 83 165 194 187 215 234 238 251 311 337 404 418 300 167 146
1 43 61 278 6 39 311 459 309 924 599 193 543 1290 993 975 1046 1804 1716 1709 1317 1227 1300 1281 1038 860 857 979 833 804 740 750 688 693 617 296 150 22 0 0 0 0 0 0 0 58 161 170 183 262 254 253 246 250 260 322 421 456 483 496 367 270 366
61 22 49 46 170 115 65 14 307 356 541 83 356 838 882 1183 1281 1307 1762 1973 1340 1079 1113 1130 913 1034 987 755 776 754 745 770 660 470 260 90 0 0 0 0 0 0 0 1 3 82 250 244 301 330 292 279 279 364 369 366 372 486 442 395 369 344 411
0 58 308 516 744 570 554 242 392 647 639 550 380 1142 1374 1148 1076 1212 1203 1601 1480 1211 1058 1324 1376 1073 784 663 717 646 603 578 513 321 187 24 0 0 0 0 0 0 0 0 59 201 260 322 333 204 258 281 274 293 275 308 410 416 397 277 375 371 331
55 182 620 744 658 759 780 698 433 669 728 482 446 1058 1143 1404 1285 1179 1110 1295 1392 1133 1212 1446 1320 1090 577 560 610 527 492 500 407 211 34 0 0 0 0 0 0 0 0 99 192 278 350 354 106 47 205 144 124 149 171 269 258 238 291 340 277 303 326
264 502 667 685 782 764 1056 896 745 799 833 802 753 931 1138 1037 1089 1078 1039 1398 1432 1233 1667 1145 1124 746 413 504 566 499 421 405 364 92 1 0 0 0 0 0 0 0 65 162 250 308 348 151 0 0 0 0 0 1 1 4 6 1 84 231 231 213 219
102 132 463 870 250 353 483 739 904 789 557 969 1094 1120 1261 1400 1496 1448 1357 934 1036 1321 1269 1186 1155 1058 556 430 442 519 462 428 199 12 0 0 0 0 0 0 0 0 23 116 228 317 225 0 0 0 0 0 0 0 1 72 3 78 217 250 256 240 109
388 298 235 1044 899 893 837 731 685 982 807 1131 1276 1489 1550 1617 1717 1654 1605 1230 876 906 763 1004 1226 1107 676 465 454 576 381 284 46 0 0 0 0 0 0 0 0 0 0 2 210 287 0 0 0 0 0 0 161 0 24 226 224 244 223 189 169 158 146
82 76 64 558 542 483 859 632 975 1040 1042 1327 1547 1566 1565 1508 1437 1514 2065 2009 1637 1172 895 684 940 1015 704 502 500 520 333 141 0 0 0 0 0 0 0 0 0 0 0 49 129 254 216 0 0 0 0 42 122 155 0 215 256 227 202 155 56 59 1
38 248 106 99 216 520 685 666 917 1231 958 1255 1334 1236 1318 1340 1228 1345 1648 1595 1865 1512 1200 1006 620 693 799 508 432 501 272 48 0 0 0 0 0 0 0 0 0 0 0 0 15 109 195 143 0 0 0 0 0 0 58 200 235 158 160 110 59 28 4
Wind_Speed
nan nan nan nan nan nan nan nan nan nan nan nan nan nan nan nan nan nan 14 8 8 5 6 6 8 10 13 14 15 16 20 22 23 22 20 16 13 10 9 9 10 10 11 12 13 13 14 14 13 11 9 9 8 8 7 5 5 5 5 5 5 5 6
nan nan nan nan nan nan nan nan nan nan nan nan nan nan nan nan nan nan nan 7 6 8 nan 10 9 9 10 11 12 13 15 18 23 25 24 21 17 14 11 11 12 12 11 11 13 20 24 23 16 14 13 11 10 9 7 5 6 5 5 5 5 6 6
nan nan nan nan nan nan nan nan nan nan nan nan nan nan nan nan nan nan nan nan nan 8 nan 11 9 8 9 10 12 13 15 16 18 21 24 25 21 19 17 15 15 15 14 13 17 21 20 20 19 16 14 13 12 9 6 5 4 4 3 5 5 7 7
nan nan nan nan nan nan nan nan nan nan nan nan nan nan nan nan nan nan nan nan nan 14 9 9 11 11 11 11 12 16 16 16 15 16 20 24 25 24 21 19 18 17 17 18 17 19 23 22 19 17 15 14 12 10 8 7 8 9 7 5 7 7 7
nan nan nan nan nan nan nan nan nan nan nan nan nan nan nan nan nan nan nan nan nan nan 10 10 12 13 13 12 14 14 16 17 16 16 17 19 23 25 25 24 21 19 19 20 19 20 21 18 18 20 18 13 12 12 10 10 9 7 7 7 7 9 10
nan nan nan nan nan nan nan nan nan nan nan nan nan 11 nan nan nan nan nan nan nan nan nan 9 11 13 13 12 11 13 17 17 17 16 17 19 20 22 23 24 24 23 21 20 20 21 20 18 16 18 19 17 14 12 12 11 8 8 6 8 10 11 11
nan nan nan nan nan nan nan nan nan nan 14 nan nan nan 14 nan nan nan nan nan nan 14 12 11 12 14 14 12 10 12 15 16 17 17 17 18 18 19 21 22 22 23 24 21 18 18 19 17 16 17 19 20 18 14 14 14 11 10 9 9 11 13 13
nan nan nan nan nan nan nan nan nan nan nan nan nan nan 16 14 nan nan nan nan nan nan 14 13 13 14 13 12 11 10 12 14 17 18 17 17 17 18 18 20 21 22 22 22 20 17 16 16 16 18 19 22 22 19 16 15 13 13 12 12 14 14 12
nan nan nan nan nan nan nan nan nan nan nan nan nan nan nan nan 17 nan nan nan nan nan 15 14 12 13 13 13 13 10 10 14 16 17 18 18 18 17 18 19 20 20 19 20 20 18 16 16 17 18 19 21 24 22 17 14 14 15 14 14 14 14 12
nan nan nan nan nan nan nan nan nan nan nan nan 20 nan nan nan 19 nan nan nan nan nan nan 14 13 13 12 13 14 12 13 14 14 16 18 19 20 20 19 19 19 20 19 19 20 19 18 16 17 18 20 21 25 26 21 17 17 19 17 16 15 15 14
nan 10 11 nan nan nan nan nan nan nan nan nan 22 22 nan nan nan nan nan 11 nan nan nan 16 15 14 12 14 16 14 15 16 16 16 17 19 21 21 20 18 18 18 19 19 19 20 19 17 17 19 20 21 25 30 27 21 18 19 18 20 19 17 16
15 16 nan nan nan nan nan nan nan nan nan nan nan nan nan 25 nan nan 15 15 nan nan nan 16 15 15 14 13 16 17 16 16 16 17 16 18 20 21 20 19 18 19 20 20 21 21 20 19 18 19 20 20 22 28 31 29 24 20 20 19 19 19 17
nan nan nan nan nan nan nan nan nan nan nan nan nan nan nan nan nan nan 19 19 nan 12 nan nan 16 17 16 17 18 19 20 19 17 16 16 17 17 19 21 21 21 21 22 22 22 22 22 21 19 18 20 21 21 23 28 31 29 24 22 21 21 19 18
nan nan nan nan nan nan nan nan nan nan nan nan nan nan nan nan 18 19 19 19 16 nan nan nan 17 17 20 22 21 22 21 20 18 16 16 15 15 16 20 22 23 22 23 24 24 23 23 23 23 21 19 19 19 19 22 28 29 28 26 22 20 19 17
nan nan nan nan nan nan nan nan nan nan nan nan nan nan nan nan nan nan nan 19 16 20 nan 16 17 19 21 23 22 22 21 20 19 18 16 15 15 16 18 21 23 24 23 24 24 24 24 24 24 23 21 20 18 17 18 22 25 28 28 25 22 18 16
nan nan nan nan nan nan nan nan nan nan nan nan nan nan nan nan nan 23 22 nan 16 25 21 22 20 19 21 23 23 22 21 20 20 19 17 16 16 17 18 19 21 23 24 24 24 23 22 22 23 23 23 22 20 19 18 18 22 26 26 27 25 21 18
nan nan nan nan nan nan nan nan nan nan nan nan nan nan nan nan 23 25 nan nan 25 28 25 25 22 21 21 20 21 22 20 19 19 20 19 17 16 16 18 18 20 22 24 25 23 22 21 22 22 23 23 23 22 20 19 20 21 20 22 25 27 25 22
nan nan nan nan nan nan nan nan nan nan nan nan nan nan nan 20 nan 20 20 25 29 27 25 23 25 22 20 20 21 21 21 21 20 20 19 18 17 16 17 18 19 21 23 24 23 21 21 21 23 23 23 23 24 24 22 20 19 20 18 20 26 27 25
nan nan nan nan nan nan nan nan 20 18 nan nan nan 16 17 19 21 20 19 22 25 26 24 25 24 22 22 19 20 20 20 19 19 19 18 17 17 17 17 18 19 21 23 24 24 23 22 23 24 24 23 24 25 24 24 23 22 19 18 18 22 27 26
nan nan nan nan nan nan nan nan 22 22 nan nan 18 15 16 17 18 18 17 24 27 26 26 25 23 22 22 20 18 20 21 20 19 17 16 16 17 17 19 19 19 21 23 24 25 26 26 24 23 23 23 nan nan nan nan 22 21 21 19 16 18 22 26
nan nan nan nan nan nan nan 22 20 22 21 22 18 nan 17 19 18 19 20 25 25 25 24 25 24 23 23 20 22 21 20 20 18 16 15 15 16 17 18 19 19 21 23 26 28 28 26 25 24 24 24 24 23 nan nan nan nan 20 19 19 18 20 22
nan nan nan nan nan nan nan 20 22 21 nan 20 19 nan nan 19 18 18 21 23 25 25 24 23 24 24 22 20 23 23 21 20 18 15 14 14 14 15 16 18 20 21 25 28 27 27 27 27 26 25 24 24 23 22 nan nan nan nan 20 20 22 21 21
nan nan nan nan nan nan 22 25 26 25 nan nan 21 nan nan 19 21 21 20 22 24 24 25 25 24 23 nan nan nan 23 22 20 17 15 14 14 14 15 16 18 20 22 25 25 26 27 29 29 28 26 25 24 24 23 nan nan nan nan nan 20 21 21 21
nan nan nan nan nan nan nan 25 nan nan nan nan nan nan nan 19 21 22 21 21 24 23 23 24 23 24 22 nan 22 23 21 20 17 15 14 14 14 15 17 19 21 22 nan 24 27 29 30 29 27 28 28 26 25 nan nan nan nan nan nan nan 19 20 22
nan nan nan nan nan nan nan nan nan nan nan nan nan nan nan 20 21 21 20 20 23 25 25 22 23 22 23 24 24 24 22 19 17 15 14 13 13 15 17 19 20 nan 22 25 27 28 26 27 30 31 30 29 nan nan nan nan 22 20 19 18 nan 19 21
nan nan nan nan 36 nan nan nan nan 29 nan nan nan 20 21 22 22 21 20 22 24 25 25 24 21 24 25 24 24 22 20 18 17 16 14 14 14 16 17 nan nan nan 21 24 25 25 28 30 31 31 31 30 nan nan nan nan 22 23 22 20 20 nan 17
nan nan nan nan nan nan nan 38 32 nan 23 22 25 24 nan 20 24 24 20 21 25 24 25 24 25 26 26 23 21 19 17 16 16 15 14 14 15 16 17 nan nan nan nan 22 22 25 28 31 31 32 32 31 nan 29 25 23 24 22 20 20 19 19 nan
nan nan nan nan 36 37 36 37 31 29 25 27 26 26 26 22 23 23 23 21 24 24 24 26 26 26 25 21 19 17 15 15 15 15 15 16 15 16 nan nan nan nan nan nan nan nan 27 30 nan 33 33 32 32 32 29 27 24 22 19 19 20 20 19
nan nan nan 40 nan nan 33 34 32 31 32 28 24 26 29 28 24 24 24 25 25 24 25 27 27 25 22 20 18 16 16 16 16 16 17 18 18 nan nan nan nan nan nan nan nan nan 24 28 31 34 35 35 34 34 33 31 28 26 22 19 19 18 18
nan nan nan nan 35 36 nan nan 32 32 32 nan 27 29 31 28 31 29 27 27 28 26 25 27 24 22 22 19 18 16 16 16 17 19 20 nan nan nan nan nan nan nan nan nan nan nan 21 25 29 33 36 37 36 35 34 33 31 29 29 26 21 19 19
nan nan 42 39 38 37 35 30 33 34 31 31 31 31 32 33 33 32 30 29 28 28 27 25 25 24 22 19 17 16 15 16 17 19 20 nan nan nan nan nan nan nan nan nan nan 20 21 22 26 31 35 37 37 35 35 35 35 34 35 34 34 33 35
nan 41 42 39 37 34 33 33 31 31 33 34 31 31 34 36 35 34 31 30 29 28 26 24 26 25 22 20 18 16 16 16 18 20 nan nan nan nan nan nan nan nan nan nan 22 22 21 21 21 nan 32 35 37 36 36 36 36 37 37 37 35 35 35
43 41 36 36 37 33 33 33 31 32 34 35 35 36 38 39 38 36 33 27 26 25 25 27 26 25 21 19 18 17 17 18 19 nan nan nan nan nan nan nan nan nan nan 23 22 23 21 18 nan nan nan nan nan nan nan nan nan nan nan 39 40 40 37
40 42 44 44 38 36 34 33 34 35 36 37 39 38 38 35 35 34 34 30 26 24 25 25 25 23 21 18 18 18 19 20 23 nan nan nan nan nan nan nan nan nan nan 23 23 22 20 nan nan nan nan nan nan nan nan nan nan nan 38 39 40 41 39
40 46 45 41 41 37 34 35 37 37 37 37 38 35 34 32 33 33 33 30 25 23 23 22 22 22 20 19 19 20 22 24 nan nan nan nan nan nan nan nan nan nan nan nan 24 22 nan nan nan nan nan nan 31 nan nan 35 34 35 38 38 38 39 39
nan nan nan 42 38 34 38 38 36 38 35 33 34 34 33 33 33 31 29 27 26 24 23 22 20 20 21 20 20 22 26 28 nan nan nan nan nan nan nan nan nan nan nan nan 24 23 21 nan nan nan nan nan 28 31 nan 35 34 33 36 39 nan nan nan
nan 34 35 nan 30 29 33 33 33 35 33 31 33 34 33 34 32 29 28 27 25 25 23 22 20 20 21 21 21 24 27 nan nan nan nan nan nan nan nan nan nan nan nan nan nan 23 21 21 nan nan nan nan nan nan nan 32 32 33 36 38 nan nan nan
Wind_Direction
nan nan nan nan nan nan nan nan nan nan nan nan nan nan nan nan nan nan 280 296 300 285 305 291 270 265 252 247 249 242 235 233 236 234 230 225 224 238 261 272 270 275 269 266 258 255 255 254 254 252 251 253 260 247 230 214 207 221 244 253 251 244 246
nan nan nan nan nan nan nan nan nan nan nan nan nan nan nan nan nan nan nan 306 293 274 nan 266 277 276 266 260 263 258 249 239 235 232 232 230 227 227 235 252 262 266 267 270 265 255 252 257 253 245 243 245 247 244 240 224 209 212 222 242 250 245 245
nan nan nan nan nan nan nan nan nan nan nan nan nan nan nan nan nan nan nan nan nan 304 nan 272 289 298 295 280 269 272 265 255 243 235 230 231 231 232 233 239 251 261 264 269 264 264 265 260 256 259 259 263 257 254 247 233 219 207 225 237 243 236 245
nan nan nan nan nan nan nan nan nan nan nan nan nan nan nan nan nan nan nan nan nan 309 295 288 297 310 300 284 273 267 264 265 258 245 235 231 231 233 236 239 245 257 268 272 271 268 260 251 244 245 257 262 272 270 263 245 215 205 203 213 234 236 239
nan nan nan nan nan nan nan nan nan nan nan nan nan nan nan nan nan nan nan nan nan nan 296 301 302 307 298 285 273 268 266 266 266 256 246 239 234 234 236 236 239 250 260 266 268 266 269 265 247 243 250 261 263 264 268 267 258 228 206 204 219 224 227
nan nan nan nan nan nan nan nan nan nan nan nan nan 324 nan nan nan nan nan nan nan nan nan 294 287 288 283 275 266 261 261 264 263 259 249 243 241 241 241 239 237 238 245 259 270 272 275 275 259 250 248 249 258 267 261 261 266 259 231 210 216 224 229
nan nan nan nan nan nan nan nan nan nan 299 nan nan nan 320 nan nan nan nan nan nan 290 288 287 275 275 277 274 270 258 258 258 261 259 251 244 244 243 242 241 241 240 241 244 256 274 283 284 274 266 254 245 249 257 253 252 260 266 259 235 229 232 233
nan nan nan nan nan nan nan nan nan nan nan nan nan nan 312 321 nan nan nan nan nan nan 284 279 273 269 274 280 275 261 256 255 259 259 251 239 236 242 245 247 244 241 239 238 243 258 269 268 263 265 259 249 243 244 250 249 254 259 257 245 237 238 235
nan nan nan nan nan nan nan nan nan nan nan nan nan nan nan nan 319 nan nan nan nan nan 280 281 278 276 279 284 281 267 252 250 252 254 250 241 232 234 242 245 244 243 241 239 239 244 254 258 249 249 256 251 241 237 238 242 241 248 250 246 241 239 238
nan nan nan nan nan nan nan nan nan nan nan nan 309 nan nan nan 296 nan nan nan nan nan nan 292 292 281 276 276 275 267 252 244 242 246 246 238 233 233 231 238 242 239 239 237 236 240 244 249 251 249 245 240 234 230 231 234 237 242 243 243 247 244 236
nan 283 277 nan nan nan nan nan nan nan nan nan 285 288 nan nan nan nan nan 289 nan nan nan 296 298 289 285 282 278 273 266 256 249 249 248 242 237 235 236 235 234 235 237 237 236 238 241 247 250 248 245 240 229 226 226 230 233 240 242 241 237 238 238
256 264 nan nan nan nan nan nan nan nan nan nan nan nan nan 283 nan nan 294 300 nan nan nan 291 294 289 280 273 271 273 275 270 261 252 249 247 243 238 238 240 236 231 231 233 233 235 237 242 250 253 252 246 234 227 228 228 230 238 242 244 247 240 233
nan nan nan nan nan nan nan nan nan nan nan nan nan nan nan nan nan nan 280 299 nan 295 nan nan 281 281 277 269 270 268 266 271 271 265 258 252 245 239 237 236 234 231 228 228 230 231 232 232 233 240 250 254 249 238 234 233 231 233 240 246 250 250 243
nan nan nan nan nan nan nan nan nan nan nan nan nan nan nan nan 278 270 283 297 310 nan nan nan 284 282 277 272 270 272 273 271 272 270 263 258 249 240 236 234 232 230 228 227 225 224 226 229 231 230 232 239 248 248 240 238 236 233 236 242 247 249 248
nan nan nan nan nan nan nan nan nan nan nan nan nan nan nan nan nan nan nan 288 293 284 nan 288 290 288 285 283 279 274 272 270 268 267 263 257 253 245 237 233 230 229 230 230 229 225 223 223 226 229 230 231 236 242 242 239 238 238 237 237 243 247 247
nan nan nan nan nan nan nan nan nan nan nan nan nan nan nan nan nan 283 283 nan 293 282 284 290 296 294 295 292 288 284 278 271 265 264 262 258 251 245 238 233 231 229 228 228 229 227 223 220 222 226 227 226 228 231 235 237 240 242 239 234 235 241 243
nan nan nan nan nan nan nan nan nan nan nan nan nan nan nan nan 276 282 nan nan 274 281 291 297 298 298 293 292 294 289 284 277 269 264 262 259 253 248 241 235 230 228 227 228 229 230 229 226 224 222 224 225 226 227 230 232 237 242 241 234 229 230 236
nan nan nan nan nan nan nan nan nan nan nan nan nan nan nan 282 nan 270 265 269 276 283 294 302 302 303 299 293 290 286 284 283 276 265 260 258 254 248 243 236 231 228 228 229 231 232 231 228 225 225 224 224 228 227 226 230 238 240 241 233 224 223 229
nan nan nan nan nan nan nan nan 280 285 nan nan nan 278 273 281 276 266 269 274 277 285 288 290 293 292 286 284 284 285 288 284 276 270 264 257 252 246 240 234 230 227 226 226 227 229 231 228 228 227 225 227 226 226 228 227 228 235 246 238 225 221 222
nan nan nan nan nan nan nan nan 275 277 nan nan 293 288 295 292 298 292 276 273 279 287 288 289 290 290 289 284 280 279 282 284 280 277 269 260 253 247 242 234 230 226 225 224 224 228 231 231 227 224 222 nan nan nan nan 228 231 229 228 235 231 225 225
nan nan nan nan nan nan nan 282 289 296 292 300 298 nan 287 298 296 295 279 277 282 284 287 289 291 289 286 282 274 278 281 283 282 278 271 265 256 246 242 240 232 228 225 226 228 229 227 227 224 221 221 223 223 nan nan nan nan 231 230 228 229 233 232
nan nan nan nan nan nan nan 291 274 286 nan 285 277 nan nan 284 286 289 286 289 292 291 290 293 293 293 289 280 272 274 278 279 278 276 270 266 258 251 244 241 238 232 230 231 225 224 222 223 224 222 219 220 221 223 nan nan nan nan 234 234 234 234 237
nan nan nan nan nan nan 281 290 289 287 nan nan 281 nan nan 291 303 303 300 295 298 299 299 298 295 292 nan nan nan 272 277 277 273 266 260 254 251 249 245 240 237 236 235 229 225 224 223 221 222 220 217 219 223 225 nan nan nan nan nan 238 244 247 246
nan nan nan nan nan nan nan 279 nan nan nan nan nan nan nan 290 305 310 308 304 305 301 296 295 295 294 293 nan 273 274 276 271 270 264 256 256 254 248 243 244 242 240 nan 232 228 227 223 221 224 220 217 219 220 nan nan nan nan nan nan nan 243 246 252
nan nan nan nan nan nan nan nan nan nan nan nan nan nan nan 280 296 304 305 303 300 297 298 300 296 297 285 282 279 278 272 269 269 265 260 259 256 246 244 244 242 nan 241 237 233 230 232 226 222 221 220 217 nan nan nan nan 219 224 231 240 nan 248 250
nan nan nan nan 261 nan nan nan nan 279 nan nan nan 277 263 281 293 298 304 302 297 298 299 301 291 288 291 288 286 282 276 272 268 266 260 258 256 252 251 nan nan nan 245 241 238 237 234 226 224 224 223 219 nan nan nan nan 211 215 218 230 245 nan 253
nan nan nan nan nan nan nan 279 274 nan 282 282 272 269 nan 274 291 300 303 300 299 299 298 295 292 294 295 293 292 286 279 274 270 264 257 255 253 250 249 nan nan nan nan 249 246 239 235 231 228 227 225 221 nan 218 216 210 210 213 217 221 231 246 nan
nan nan nan nan 263 269 286 285 284 287 281 269 280 279 276 278 287 296 297 294 294 299 294 296 295 296 297 296 295 287 281 274 269 265 261 261 258 257 nan nan nan nan nan nan nan nan 238 235 nan 231 230 226 224 221 217 215 212 211 215 221 233 243 251
nan nan nan 254 nan nan 274 262 261 271 278 276 281 274 281 288 288 285 292 295 292 292 289 288 294 297 302 301 298 290 281 276 271 267 263 261 261 nan nan nan nan nan nan nan nan nan 245 238 236 234 233 230 228 225 222 220 220 219 219 224 235 243 251
nan nan nan nan 252 256 nan nan 268 269 278 nan 279 280 281 283 287 294 291 290 289 288 287 287 288 294 299 303 301 294 281 274 270 265 266 nan nan nan nan nan nan nan nan nan nan nan 253 244 239 237 234 233 231 229 228 227 226 227 231 233 233 235 242
nan nan 248 245 244 247 255 265 268 270 274 277 277 276 279 285 287 288 280 283 287 289 290 290 287 292 297 302 302 296 284 276 271 269 266 nan nan nan nan nan nan nan nan nan nan 268 261 252 244 239 235 235 234 233 232 231 232 235 238 242 245 243 241
nan 241 240 240 242 247 252 259 267 271 275 277 275 270 272 277 280 282 281 280 279 283 285 283 281 286 293 299 301 298 289 280 274 271 nan nan nan nan nan nan nan nan nan nan 275 270 268 262 255 nan 239 236 235 235 236 237 239 242 244 245 246 245 244
238 237 243 244 242 249 258 264 265 264 268 275 277 277 278 279 280 277 273 268 277 284 279 277 277 282 291 296 298 296 289 283 278 nan nan nan nan nan nan nan nan nan nan 274 273 273 272 269 nan nan nan nan nan nan nan nan nan nan nan 245 247 248 247
235 237 239 246 246 248 255 261 265 268 268 271 274 276 276 277 277 276 272 264 263 263 268 274 277 283 289 295 295 295 289 284 279 nan nan nan nan nan nan nan nan nan nan 268 268 270 271 nan nan nan nan nan nan nan nan nan nan nan 247 246 246 248 249
237 237 236 243 243 244 247 252 261 265 269 272 275 275 274 272 272 273 270 267 263 262 261 264 274 280 287 295 295 291 285 280 nan nan nan nan nan nan nan nan nan nan nan nan 265 265 nan nan nan nan nan nan 244 nan nan 245 245 248 249 248 247 248 251
nan nan nan 242 245 242 245 245 255 264 264 268 267 263 267 272 272 267 265 267 269 262 260 263 265 277 284 292 293 288 281 281 nan nan nan nan nan nan nan nan nan nan nan nan 263 261 262 nan nan nan nan nan 249 245 nan 246 245 247 251 251 nan nan nan
nan 231 234 nan 236 240 244 248 251 255 258 256 264 269 271 270 264 261 262 257 255 265 266 266 267 273 283 287 286 284 281 nan nan nan nan nan nan nan nan nan nan nan nan nan nan 265 262 260 nan nan nan nan nan nan nan 241 242 249 254 254 nan nan nan